Torna al catalogo

COSMOS 1475

AttivoNavigazioneLEO
NORAD 14173·PAYLOAD·🇷🇺 Russia

Lanciato Jul 6, 1983 da Plesetsk Cosmodrome

Loading…

Prossimi Passaggi (prossime 24 ore)

TLE

AggiornatoSource: Space-Track

Epoca: Sep 14, 2026, 15:42 UTC

1 14173U 83069C   26257.65457229 -.00000026  00000-0 -61234-4 0  9994
2 14173  74.0274  34.0848 0022283 307.0142  64.6608 12.54581890978213

Traccia COSMOS 1475 in tempo reale con AllMySat

Download on the App Store